This demonstration page uses our WeatherBlox Daily Observations layout. Learn more.

Left ArrowRight Arrow

Hourly Observations for April 9, 2021

Temp ( °F °C ) Dew Point ( °F °C ) Humidity (%) Winds ( mph kmh ) Pressure ( in mb ) Visibility ( mi km ) Precip ( " mm )
12:59 am 00:59 Mostly Cloudy 59 15 53 11.7 81 81 ESE 8 13 30.06 1018 10 16 0.00 0.00
1:59 am 01:59 Mostly Cloudy 60 15.6 53 11.7 78 78 ESE 7 11 30.04 1017 10 16 0.00 0.00
2:59 am 02:59 Mostly Cloudy 60 15.6 53 11.7 78 78 ESE 8 13 30.03 1017 10 16 0.00 0.00
3:59 am 03:59 Mostly Cloudy 60 15.6 53 11.7 78 78 ESE 7 11 30.03 1017 10 16 0.00 0.00
4:59 am 04:59 Mostly Cloudy 60 15.6 53 11.7 78 78 SE 7 11 30.02 1017 10 16 0.00 0.00
5:59 am 05:59 Mostly Cloudy 60 15.6 54 12.2 80 80 SE 8 13 30.03 1017 10 16 0.00 0.00
6:59 am 06:59 Mostly Cloudy 61 16.1 54 12.2 78 78 SE 6 9 30.05 1018 10 16 0.00 0.00
7:59 am 07:59 Mostly Cloudy 63 17.2 55 12.8 76 76 SE 9 15 30.06 1018 10 16 0.00 0.00
8:59 am 08:59 Mostly Cloudy 66 18.9 56 13.3 70 70 SSE 9 15 30.06 1018 10 16 0.00 0.00
9:59 am 09:59 Mostly Cloudy 70 21.1 57 13.9 64 64 SE 14 22 30.07 1018 9 14 0.00 0.00
10:59 am 10:59 Mostly Cloudy 72 22.2 59 15 64 64 SE 10 17 30.06 1018 10 16 0.00 0.00
11:59 am 11:59 Mostly Cloudy 74 23.3 60 15.6 62 62 SSE 16 26 30.06 1018 10 16 0.00 0.00
12:59 pm 12:59 Mostly Cloudy 75 23.9 60 15.6 60 60 SE 8 13 30.04 1017 10 16 0.00 0.00
1:59 pm 13:59 Mostly Cloudy 76 24.4 61 16.1 60 60 ESE 12 19 30.03 1017 10 16 0.00 0.00
2:59 pm 14:59 Mostly Cloudy 76 24.4 61 16.1 60 60 ESE 12 19 30.02 1017 10 16 0.00 0.00
3:59 pm 15:59 Cloudy 73 22.8 60 15.6 64 64 SSE 12 19 30.01 1016 10 16 0.00 0.00
4:13 pm 16:13 Cloudy with Thunderstorms 70 21.1 60 15.6 71 71 SE 15 24 30.00 1016 10 16 0.00 0.00
4:59 pm 16:59 Cloudy with Thunderstorms 68 20 60 15.6 76 76 SE 14 22 29.99 1016 10 16 0.00 0.00
5:44 pm 17:44 Cloudy with Thunderstorms 67 19.4 61 16.1 81 81 ESE 10 17 30.04 1017 2 3 0.10 2.54
5:59 pm 17:59 Cloudy with Strong Thunderstorms 66 18.9 61 16.1 84 84 SE 6 9 30.05 1018 2 3 0.17 4.32
6:29 pm 18:29 Cloudy with Thunderstorms 65 18.3 62 16.7 90 90 SSE 10 17 30.04 1017 5 8 0.07 1.78
6:59 pm 18:59 Cloudy with Thunderstorms 65 18.3 62 16.7 90 90 SE 14 22 30.02 1017 6 10 0.09 2.29
7:59 pm 19:59 Cloudy 64 17.8 61 16.1 90 90 SSE 14 22 30.01 1016 10 16 0.03 0.76
8:59 pm 20:59 Mostly Cloudy 65 18.3 60 15.6 84 84 SSE 10 17 30.02 1017 10 16 0.00 0.00
9:52 pm 21:52 Cloudy with Rain 64 17.8 59 15 84 84 WNW 14 22 30.11 1020 4 6 0.05 1.27
9:59 pm 21:59 Cloudy with Light Rain 64 17.8 59 15 84 84 WNW 9 15 30.11 1020 4 6 0.06 1.52
10:05 pm 22:05 Cloudy with Thunderstorms 64 17.8 60 15.6 87 87 NW 8 13 30.12 1020 4 6 0.03 0.76
10:30 pm 22:30 Cloudy with Rain 62 16.7 59 15 90 90 NNE 7 11 30.11 1020 3 5 0.16 4.06
10:59 pm 22:59 Cloudy with Light Rain 61 16.1 58 14.4 90 90 Calm 30.11 1020 5 8 0.22 5.59
11:59 pm 23:59 Cloudy 62 16.7 58 14.4 86 86 SE 7 11 30.03 1017 10 16 0.01 0.25

Powered by AerisWeather